Location: Overspoor
(51.4747°N, 5.6641°E)
Time: 11:48:00
(UTC+02:00)

YUBILEINY - Pass Details

Date: 03 July 2022
Orbit: 1478 x 1509 km, 82.5° (Epoch: 07 August)

Event Time Altitude Azimuth Distance (km) Brightness Sun altitude
Rises 02:15:40 0° 344° (NNW) 4,658 ? -15.2°
Reaches altitude 10° 02:21:52 10° 16° (NNE) 3,668 ? -15.0°
Maximum altitude 02:24:26 11° 33° (NNE) 3,555 ? -15.0°
Drops below altitude 10° 02:26:58 10° 51° (NE) 3,658 ? -14.9°
Sets 02:33:05 0° 83° (E) 4,625 ? -14.7°
